Content
SEND FEEDBACK

Daily
Averages
Monthly
Summary
United States of America

PINE RIVER, WISCONSIN


Home > North America > United States > Wisconsin
Elevation: 880 feet     Latitude: 44 11N     Longitude: 089 02W

WEATHER
 
SELECT A DAY
Number of Records: 242,810;   Date Range: 9/20/04 - 9/30/14
 
SHARE

PRINT THIS DATA

[ ← Previous Day ]
WEATHER ALMANAC - JANUARY 31, 2013
[ Next Day → ]
[ °C ]   °F
Weather ElementAverageHighLow
Temperature11.3 °F17.6 °F (12:35 am)3.2 °F (10:35 pm)
Dewpoint2.1 °F10.4 °F (12:35 am)-5.8 °F (11:55 pm)
Humidity66.4 %79 % (1:15 am)57 % (11:15 am)
Barometer29.81 in30.07 in (11:55 pm)29.56 in (12:35 am)
Wind Speed12.3 mph17.3 mph (3:15 pm)
Wind Gust26.5 mph (4:15 pm)
Weather ElementAverage
Visibility8.6 mi
Wind DirectionWNW (281 °)

Weather ElementTotal
Precipitation---
Heating Degree Days54.6 (Base 65)
Averaged from 71 records on January 31, 2013
WEATHER CONDITIONS BREAKOUT
WIND DIRECTION BREAKOUT
WEATHER BY HOUR - JANUARY 31, 2013
[ °C ]   °F
Local TimeTemperatureDewpointHumidityBarometerVisibilityWind DirectionWind SpeedGust SpeedPrecipitationEventsConditions
12:35 AM17.6 °F10.4 °F73 %29.56 in10.0 miWest (270°)13.8 mph20.7 mphOvercast
12:55 AM17.6 °F10.4 °F73 %29.57 in7.0 miWest (270°)16.1 mphSnowLight Snow
1:15 AM15.8 °F10.4 °F79 %29.58 in7.0 miWest (280°)16.1 mph20.7 mphOvercast
1:35 AM15.8 °F8.6 °F73 %29.58 in5.0 miWest (280°)12.7 mphHaze
1:55 AM15.8 °F8.6 °F73 %29.59 in7.0 miWest (270°)13.8 mph18.4 mphOvercast
2:15 AM15.8 °F8.6 °F73 %29.60 in10.0 miWest (270°)11.5 mphOvercast
2:35 AM14.0 °F6.8 °F73 %29.61 in10.0 miWest (280°)13.8 mphOvercast
2:55 AM14.0 °F6.8 °F73 %29.61 in10.0 miWNW (290°)11.5 mph19.6 mphOvercast
3:15 AM14.0 °F5.0 °F67 %29.61 in10.0 miWNW (290°)12.7 mph16.1 mphOvercast
3:35 AM14.0 °F5.0 °F67 %29.62 in10.0 miWNW (290°)10.4 mphOvercast
3:55 AM14.0 °F5.0 °F67 %29.62 in10.0 miWest (280°)15.0 mph18.4 mphOvercast
4:15 AM14.0 °F3.2 °F62 %29.63 in10.0 miWNW (290°)10.4 mph18.4 mphOvercast
4:35 AM14.0 °F3.2 °F62 %29.63 in10.0 miWest (280°)12.7 mph24.2 mphOvercast
4:55 AM14.0 °F3.2 °F62 %29.64 in10.0 miWest (280°)12.7 mphOvercast
5:15 AM12.2 °F3.2 °F67 %29.64 in10.0 miWest (280°)10.4 mph17.3 mphOvercast
5:35 AM12.2 °F3.2 °F67 %29.64 in10.0 miWest (280°)8.1 mphOvercast
5:55 AM12.2 °F3.2 °F67 %29.64 in10.0 miWest (280°)9.2 mphOvercast
6:15 AM12.2 °F3.2 °F67 %29.66 in10.0 miWest (280°)9.2 mph16.1 mphOvercast
6:35 AM12.2 °F3.2 °F67 %29.66 in10.0 miWest (280°)11.5 mphOvercast
6:55 AM12.2 °F3.2 °F67 %29.67 in10.0 miWest (280°)8.1 mph16.1 mphOvercast
7:15 AM12.2 °F3.2 °F67 %29.68 in10.0 miWest (280°)9.2 mph18.4 mphOvercast
7:35 AM12.2 °F3.2 °F67 %29.69 in10.0 miWNW (290°)9.2 mph17.3 mphOvercast
7:55 AM12.2 °F3.2 °F67 %29.71 in10.0 miWest (280°)11.5 mph19.6 mphOvercast
8:15 AM12.2 °F3.2 °F67 %29.72 in10.0 miWNW (290°)12.7 mph20.7 mphOvercast
8:35 AM12.2 °F3.2 °F67 %29.73 in10.0 miWest (280°)11.5 mphOvercast
8:55 AM12.2 °F3.2 °F67 %29.74 in10.0 miWest (280°)10.4 mph19.6 mphOvercast
9:15 AM12.2 °F3.2 °F67 %29.74 in10.0 miWest (280°)13.8 mph20.7 mphOvercast
9:35 AM12.2 °F3.2 °F67 %29.75 in10.0 miWNW (290°)11.5 mph17.3 mphMostly Cloudy
9:55 AM14.0 °F3.2 °F62 %29.76 in5.0 miWNW (290°)13.8 mph21.9 mphHaze
10:15 AM14.0 °F3.2 °F62 %29.77 in10.0 miWNW (290°)13.8 mph18.4 mphMostly Cloudy
10:35 AM14.0 °F3.2 °F62 %29.77 in7.0 miWNW (290°)10.4 mph17.3 mphOvercast
10:55 AM14.0 °F3.2 °F62 %29.78 in7.0 miWNW (300°)12.7 mph19.6 mphOvercast
11:15 AM14.0 °F1.4 °F57 %29.78 in7.0 miWest (280°)13.8 mph19.6 mphOvercast
11:35 AM14.0 °F1.4 °F57 %29.78 in7.0 miWNW (290°)9.2 mph20.7 mphScattered Clouds
11:55 AM14.0 °F1.4 °F57 %29.79 in7.0 miWNW (290°)13.8 mph19.6 mphClear
12:15 PM14.0 °F1.4 °F57 %29.79 in5.0 miWest (280°)11.5 mph24.2 mphHaze
12:35 PM14.0 °F3.2 °F62 %29.80 in5.0 miWest (270°)16.1 mph23.0 mphHaze
12:55 PM14.0 °F3.2 °F62 %29.80 in5.0 miWest (280°)15.0 mph23.0 mphHaze
1:15 PM14.0 °F3.2 °F62 %29.81 in4.0 miWest (280°)16.1 mph23.0 mphHaze
1:35 PM14.0 °F3.2 °F62 %29.81 in2.5 miWest (270°)16.1 mph21.9 mphHaze
1:55 PM14.0 °F1.4 °F57 %29.82 in7.0 miWest (270°)16.1 mph20.7 mphOvercast
2:15 PM14.0 °F3.2 °F62 %29.82 in4.0 miWest (280°)13.8 mph21.9 mphHaze
2:35 PM12.2 °F3.2 °F67 %29.83 in4.0 miWest (270°)16.1 mph23.0 mphHaze
2:55 PM12.2 °F3.2 °F67 %29.84 in5.0 miWest (280°)10.4 mph19.6 mphHaze
3:15 PM12.2 °F3.2 °F67 %29.85 in7.0 miWest (280°)17.3 mph21.9 mphOvercast
3:35 PM12.2 °F3.2 °F67 %29.86 in4.0 miWest (270°)15.0 mph23.0 mphHaze
3:55 PM12.2 °F3.2 °F67 %29.87 in5.0 miWest (270°)16.1 mph23.0 mphHaze
4:15 PM12.2 °F1.4 °F62 %29.88 in7.0 miWest (280°)12.7 mph26.5 mphOvercast
4:35 PM10.4 °F1.4 °F67 %29.89 in7.0 miWest (280°)16.1 mph21.9 mphMostly Cloudy
4:55 PM10.4 °F-0.4 °F62 %29.90 in10.0 miWest (280°)16.1 mph20.7 mphClear
5:15 PM10.4 °F1.4 °F67 %29.91 in10.0 miWest (280°)13.8 mph21.9 mphMostly Cloudy
5:35 PM10.4 °F-0.4 °F62 %29.93 in10.0 miWest (280°)13.8 mph23.0 mphScattered Clouds
5:55 PM8.6 °F-0.4 °F67 %29.94 in10.0 miWest (280°)10.4 mph19.6 mphScattered Clouds
6:15 PM8.6 °F-0.4 °F67 %29.95 in10.0 miWest (280°)11.5 mph19.6 mphScattered Clouds
6:35 PM8.6 °F-0.4 °F67 %29.96 in10.0 miWest (280°)12.7 mph17.3 mphClear
6:55 PM8.6 °F-0.4 °F67 %29.97 in10.0 miWest (280°)11.5 mph19.6 mphScattered Clouds
7:15 PM8.6 °F-0.4 °F67 %29.98 in10.0 miWest (280°)11.5 mph18.4 mphScattered Clouds
7:35 PM8.6 °F-0.4 °F67 %29.99 in10.0 miWNW (290°)11.5 mph17.3 mphClear
7:55 PM6.8 °F-0.4 °F72 %29.99 in10.0 miWest (280°)11.5 mph18.4 mphClear
8:15 PM6.8 °F-2.2 °F67 %30.00 in10.0 miWest (280°)10.4 mphClear
8:35 PM6.8 °F-2.2 °F67 %30.01 in10.0 miWest (280°)11.5 mph18.4 mphClear
8:55 PM5.0 °F-2.2 °F72 %30.02 in10.0 miWNW (290°)9.2 mph18.4 mphClear
9:15 PM5.0 °F-4.0 °F66 %30.03 in10.0 miWNW (290°)9.2 mph17.3 mphClear
9:35 PM5.0 °F-4.0 °F66 %30.03 in10.0 miWest (280°)9.2 mphClear
9:55 PM5.0 °F-4.0 °F66 %30.04 in10.0 miWest (280°)9.2 mph16.1 mphClear
10:15 PM5.0 °F-4.0 °F66 %30.05 in10.0 miWest (280°)11.5 mphClear
10:35 PM3.2 °F-4.0 °F72 %30.05 in10.0 miWest (280°)12.7 mph17.3 mphClear
10:55 PM3.2 °F-4.0 °F72 %30.06 in10.0 miWest (280°)12.7 mph16.1 mphClear
11:15 PM3.2 °F-4.0 °F72 %30.06 in10.0 miWest (280°)10.4 mphClear
11:35 PM3.2 °F-4.0 °F72 %30.06 in10.0 miWest (280°)10.4 mph18.4 mphClear
11:55 PM3.2 °F-5.8 °F66 %30.07 in10.0 miWest (280°)9.2 mph17.3 mphClear
Hourly data recorded from KPCZ, located miles away from Pine River, Wisconsin







STORIES FROM OUR PARTNERS